Elkins, WV

9:17 PM EDT on April 25, 2017 (GMT -0400)
Elkins-Randolph County

Weather History for KEKN - May, 2012

Change the Weather History Date:

Wednesday, May 16, 2012

  Actual Average Record
Temperature  
Mean Temperature 64 °F 58 °F  
Max Temperature 76 °F 71 °F 90 °F (1900)
Min Temperature 52 °F 45 °F 25 °F (1973)
Degree Days  
Heating Degree Days 1 8  
Month to date heating degree days 66 149  
Since 1 July heating degree days 4692 5712  
Cooling Degree Days 0 1  
Month to date cooling degree days 16 3  
Year to date cooling degree days 16 6  
Growing Degree Days 13 (Base 50)    
Moisture  
Dew Point 52 °F    
Average Humidity 69    
Maximum Humidity 100    
Minimum Humidity 38    
Precipitation  
Precipitation T in 0.17 in 3.35 in (1996)
Month to date precipitation 4.97 2.59  
Year to date precipitation 16.70 16.68  
Snow  
Snow 0.00 in - - ()
Month to date snowfall 0.0  
Since 1 September snowfall 30.6  
Snow Depth 0.00 in    
Sea Level Pressure  
Sea Level Pressure 30.02 in    
Wind  
Wind Speed 3 mph (West)    
Max Wind Speed 12 mph    
Max Gust Speed 18 mph    
Visibility 5 miles    
Events Fog , Rain    
T = Trace of Precipitation, MM = Missing Value Source: NWS Daily Summary

Daily Weather History Graph

Daily Weather History Graph

Search for Another Location

Airport or City:

Trip Planner

Search our weather history database for the weather conditions in past years. The results will help you decide how hot, cold, wet, or windy it might be!

Date:

Astronomy

May. 16, 2012 Rise Set
Actual Time 6:05 AM EDT 8:26 PM EDT
Civil Twilight 5:35 AM EDT 8:56 PM EDT
Nautical Twilight 4:58 AM EDT 9:33 PM EDT
Astronomical Twilight 4:17 AM EDT 10:15 PM EDT
Moon 3:32 AM EDT (5/16) 4:42 PM EDT (5/16)
Length of Visible Light 15h 21m
Length of Day
14h 20m
Waning Crescent, 16% of the Moon is Illuminated
May 16
Waning Crescent
May 20
New
May 28
First Quarter
Jun 4
Full
Jun 11
Last Quarter

Hourly Weather History & Observations

Time (EDT) Temp. Dew Point Humidity Pressure Visibility Wind Dir Wind Speed Gust Speed Precip Events Conditions
12:39 AM 53.6 °F 53.6 °F 100% 30.05 in 1.0 mi Calm Calm - N/A   Overcast
12:51 AM 54.0 °F 53.1 °F 97% 30.05 in 1.5 mi Calm Calm - N/A   Overcast
1:05 AM 53.6 °F 53.6 °F 100% 30.04 in 0.8 mi Calm Calm - N/A   Overcast
1:51 AM 54.0 °F 53.1 °F 97% 30.03 in 0.5 mi Calm Calm - N/A Fog Fog
2:17 AM 53.6 °F 53.6 °F 100% 30.03 in 0.2 mi Calm Calm - 0.00 in Fog , Rain Light Rain
2:51 AM 54.0 °F 53.1 °F 97% 30.03 in 0.2 mi Calm Calm - 0.00 in Fog Fog
3:21 AM 53.6 °F 53.6 °F 100% 30.03 in 0.5 mi SSE 3.5 mph - N/A Fog Fog
3:28 AM 53.6 °F 53.6 °F 100% 30.03 in 0.2 mi Variable 4.6 mph - N/A Fog Fog
3:51 AM 53.1 °F 52.0 °F 96% 30.03 in 0.5 mi Calm Calm - N/A Fog Fog
4:14 AM 53.6 °F 51.8 °F 94% 30.03 in 0.2 mi Calm Calm - N/A Fog Fog
4:33 AM 53.6 °F 51.8 °F 94% 30.04 in 0.5 mi Calm Calm - N/A Fog Fog
4:51 AM 53.1 °F 52.0 °F 96% 30.04 in 0.5 mi Calm Calm - N/A Fog Fog
5:28 AM 51.8 °F 51.8 °F 100% 30.04 in 0.2 mi SE 3.5 mph - N/A Fog Fog
5:51 AM 52.0 °F 51.1 °F 97% 30.04 in 0.2 mi Calm Calm - N/A Fog Fog
6:51 AM 52.0 °F 51.1 °F 97% 30.04 in 0.2 mi SE 4.6 mph - N/A Fog Fog
7:51 AM 52.0 °F 51.1 °F 97% 30.04 in 0.2 mi Calm Calm - N/A Fog Fog
8:34 AM 51.8 °F 51.8 °F 100% 30.05 in 0.8 mi Calm Calm - N/A   Mist
8:51 AM 53.1 °F 52.0 °F 96% 30.06 in 1.5 mi Calm Calm - N/A   Overcast
9:18 AM 53.6 °F 53.6 °F 100% 30.05 in 3.0 mi Calm Calm - N/A   Overcast
9:51 AM 57.0 °F 54.0 °F 89% 30.05 in 6.0 mi Calm Calm - N/A   Overcast
10:17 AM 60.8 °F 55.4 °F 82% 30.05 in 7.0 mi Calm Calm - N/A   Scattered Clouds
10:51 AM 66.9 °F 57.9 °F 73% 30.05 in 10.0 mi Calm Calm - N/A   Partly Cloudy
11:51 AM 71.1 °F 55.0 °F 57% 30.03 in 10.0 mi West 4.6 mph - N/A   Partly Cloudy
12:51 PM 72.0 °F 51.1 °F 48% 30.01 in 9.0 mi North 8.1 mph - N/A   Mostly Cloudy
1:51 PM 71.6 °F 46.4 °F 41% 30.00 in 10.0 mi West 4.6 mph - N/A   Clear
2:51 PM 73.9 °F 48.9 °F 41% 29.98 in 10.0 mi WNW 5.8 mph - N/A   Mostly Cloudy
3:51 PM 75.9 °F 48.9 °F 38% 29.96 in 10.0 mi WNW 8.1 mph - N/A   Scattered Clouds
4:51 PM 72.0 °F 50.0 °F 46% 29.96 in 10.0 mi NW 5.8 mph - N/A   Partly Cloudy
5:51 PM 73.9 °F 50.0 °F 43% 29.95 in 10.0 mi West 5.8 mph - N/A   Scattered Clouds
6:51 PM 73.0 °F 48.9 °F 42% 29.95 in 10.0 mi WNW 9.2 mph - N/A   Partly Cloudy
7:51 PM 66.0 °F 53.1 °F 63% 29.98 in 10.0 mi Calm Calm - N/A   Clear
8:51 PM 61.0 °F 55.0 °F 81% 30.01 in 10.0 mi Calm Calm - N/A   Mostly Cloudy
9:51 PM 59.0 °F 53.1 °F 81% 30.02 in 9.0 mi Calm Calm - N/A   Mostly Cloudy
10:51 PM 60.1 °F 54.0 °F 80% 30.03 in 10.0 mi Calm Calm - 0.00 in   Overcast
11:51 PM 55.0 °F 53.1 °F 93% 30.03 in 8.0 mi SE 3.5 mph - N/A   Clear